User: anonymous   Login
Location: Newark
(13.8625°N, 100.5144°E)
Time: 02:02:46
(UTC+00:00)
Language:

AO-73 - Orbit

View from above orbital plane
View from above orbital plane
View from above satellite
View from above satellite

Ground track
Ground track

The orbit data is extracted from the following two-line orbital elements,

1 39444U 13066AE  21216.49229755  .00000406  00000-0  55627-4 0  9994
2 39444  97.5859 200.7105 0057523 355.4224   4.6457 14.82475846414555
Epoch (UTC): 04 August 2021 11:48:54
Eccentricity: 0.0057523
inclination: 97.5859°
perigee height: 581 km
apogee height: 662 km
right ascension of ascending node: 200.7105°
argument of perigee: 355.4224°
revolutions per day: 14.82475846
mean anomaly at epoch: 4.6457°
orbit number at epoch: 41455

The dashed part of the orbit path shows where the satellite is in the earth's shadow,  

DLR